This demonstration page uses our WeatherBlox Daily Observations layout. Learn more.

Left ArrowRight Arrow

31.84235, -102.49876

Hourly Observations for November 6, 2015

Temp ( °F °C ) Dew Point ( °F °C ) Humidity (%) Winds ( mph kmh ) Pressure ( in mb ) Visibility ( mi km ) Precip ( " mm )
12:53 am 00:53 Clear 49 9.4 28 -2.2 44 44 N 15 24 30.05 1018 10 16 0.00 0.00
1:53 am 01:53 Clear 46 7.8 28 -2.2 50 50 N 7 11 30.08 1019 10 16 0.00 0.00
2:53 am 02:53 Clear 44 6.7 31 -0.6 60 60 Calm 30.08 1019 10 16 0.00 0.00
3:53 am 03:53 Clear 45 7.2 29 -1.7 54 54 N 8 13 30.07 1018 10 16 0.00 0.00
4:53 am 04:53 Clear 43 6.1 31 -0.6 63 63 Calm 30.09 1019 10 16 0.00 0.00
5:53 am 05:53 Clear 41 5 29 -1.7 62 62 N 5 7 30.11 1020 10 16 0.00 0.00
6:53 am 06:53 Mostly Clear 41 5 29 -1.7 62 62 Calm 30.13 1020 10 16 0.00 0.00
7:53 am 07:53 Mostly Sunny 43 6.1 33 0.6 68 68 N 5 7 30.14 1021 10 16 0.00 0.00
8:53 am 08:53 Sunny 51 10.6 31 -0.6 46 46 Calm 30.14 1021 10 16 0.00 0.00
9:53 am 09:53 Sunny 57 13.9 29 -1.7 34 34 ESE 7 11 30.14 1021 10 16 0.00 0.00
10:53 am 10:53 Sunny 60 15.6 29 -1.7 31 31 Calm 30.12 1020 10 16 0.00 0.00
11:53 am 11:53 Partly Cloudy 62 16.7 27 -2.8 26 26 SSE 6 9 30.11 1020 10 16 0.00 0.00
12:53 pm 12:53 Cloudy 65 18.3 27 -2.8 24 24 SSE 7 11 30.07 1018 10 16 0.00 0.00
1:53 pm 13:53 Cloudy 66 18.9 26 -3.3 22 22 SSE 6 9 30.04 1017 10 16 0.00 0.00
2:53 pm 14:53 Mostly Cloudy 67 19.4 28 -2.2 23 23 Calm 30.01 1016 10 16 0.00 0.00
3:53 pm 15:53 Mostly Cloudy 69 20.6 26 -3.3 20 20 ESE 7 11 29.99 1016 10 16 0.00 0.00
4:53 pm 16:53 Cloudy 68 20 26 -3.3 21 21 SE 5 7 30.00 1016 10 16 0.00 0.00
5:53 pm 17:53 Cloudy 66 18.9 30 -1.1 26 26 E 5 7 30.01 1016 10 16 0.00 0.00
6:53 pm 18:53 Cloudy 64 17.8 36 2.2 35 35 ENE 7 11 30.03 1017 10 16 0.00 0.00
7:53 pm 19:53 Mostly Clear 59 15 36 2.2 42 42 E 8 13 30.05 1018 9 14 0.00 0.00
8:53 pm 20:53 Clear 56 13.3 34 1.1 44 44 ENE 8 13 30.05 1018 10 16 0.00 0.00
9:53 pm 21:53 Clear 53 11.7 36 2.2 52 52 ENE 12 19 30.07 1018 10 16 0.00 0.00
10:53 pm 22:53 Clear 53 11.7 36 2.2 52 52 E 10 17 30.06 1018 10 16 0.00 0.00
11:53 pm 23:53 Clear 49 9.4 38 3.3 66 66 ENE 10 17 30.07 1018 10 16 0.00 0.00

Powered by AerisWeather